Weather History for DeKalb, IL

Change the Weather History Date:

Thursday, November 8, 2012

  Actual Average (KARR) Record (KARR)
Temperature  
Mean Temperature 42 °F 42 °F  
Max Temperature 47 °F 52 °F 74 °F (1999)
Min Temperature 35 °F 32 °F 17 °F (2003)
Degree Days  
Heating Degree Days 24 23  
Month to date heating degree days 172  
Since 1 July heating degree days 779  
Cooling Degree Days 0 0  
Month to date cooling degree days 0  
Year to date cooling degree days 655  
Moisture  
Dew Point 36 °F    
Average Humidity 83    
Maximum Humidity 91    
Minimum Humidity 68    
Precipitation  
Precipitation 0.00 in 0.11 in 1.33 in (2011)
Month to date precipitation 0.97  
Year to date precipitation 32.73  
Sea Level Pressure  
Sea Level Pressure 30.14 in    
Wind  
Wind Speed 6 mph (SSW)    
Max Wind Speed 13 mph    
Max Gust Speed 20 mph    
Visibility 7 miles    
Events      
T = Trace of Precipitation, MM = Missing Value Source: NWS Daily Summary

Daily Weather History Graph

Daily Weather History Graph

Search for Another Location

Airport:

Trip Planner

Search our weather history database for the weather conditions in past years. The results will help you decide how hot, cold, wet, or windy it might be!

Date:

Astronomy

Nov. 08, 2012 Rise Set
Actual Time 6:36 AM CST 4:40 PM CST
Civil Twilight 6:07 AM CST 5:09 PM CST
Nautical Twilight 5:33 AM CST 5:42 PM CST
Astronomical Twilight 5:00 AM CST 6:15 PM CST
Moon 12:26 AM CST (11/8) 1:26 PM CST (11/8)
Length of Visible Light 11h 02m
Length of Day
10h 03m
Waning Crescent, 32% of the Moon is Illuminated
Nov 8
Waning Crescent
Nov 13
New
Nov 20
First Quarter
Nov 28
Full
Dec 6
Last Quarter

Hourly Weather History & Observations

Time (CST) Temp. Windchill Dew Point Humidity Pressure Visibility Wind Dir Wind Speed Gust Speed Precip Events Conditions
12:15 AM 40.6 °F - 38.3 °F 91% 30.16 in 2.5 mi Calm Calm - N/A   Overcast
12:35 AM 40.8 °F - 38.3 °F 91% 30.15 in 2.5 mi Calm Calm - N/A   Overcast
12:55 AM 40.5 °F - 38.1 °F 91% 30.16 in 2.0 mi Calm Calm - N/A   Overcast
1:15 AM 40.1 °F - 37.8 °F 91% 30.16 in 2.0 mi Calm Calm - N/A   Overcast
1:35 AM 40.8 °F 38.8 °F 38.5 °F 91% 30.16 in 3.0 mi WSW 3.5 mph - N/A   Overcast
1:55 AM 40.8 °F 38.8 °F 38.3 °F 91% 30.16 in 3.0 mi West 3.5 mph - N/A   Overcast
2:15 AM 40.8 °F 38.8 °F 38.5 °F 91% 30.16 in 4.0 mi WSW 3.5 mph - N/A   Overcast
2:35 AM 41.0 °F 38.0 °F 38.3 °F 90% 30.16 in 4.0 mi West 4.6 mph - N/A   Overcast
2:55 AM 41.0 °F 38.0 °F 38.3 °F 90% 30.17 in 5.0 mi West 4.6 mph - N/A   Overcast
3:15 AM 41.0 °F 37.1 °F 37.6 °F 88% 30.16 in 7.0 mi West 5.8 mph - N/A   Overcast
3:35 AM 41.0 °F 38.0 °F 37.0 °F 86% 30.17 in 7.0 mi West 4.6 mph - N/A   Overcast
3:55 AM 41.0 °F 39.0 °F 37.0 °F 86% 30.17 in 7.0 mi West 3.5 mph - N/A   Overcast
4:15 AM 41.0 °F 39.0 °F 36.9 °F 85% 30.17 in 7.0 mi SW 3.5 mph - N/A   Overcast
4:55 AM 40.6 °F 37.5 °F 37.0 °F 87% 30.17 in 7.0 mi West 4.6 mph - N/A   Overcast
5:35 AM 40.1 °F 38.0 °F 36.9 °F 88% 30.17 in 5.0 mi WSW 3.5 mph - N/A   Overcast
5:55 AM 40.1 °F 38.0 °F 36.9 °F 88% 30.18 in 5.0 mi WSW 3.5 mph - N/A   Overcast
6:15 AM 40.1 °F 38.0 °F 36.9 °F 88% 30.18 in 5.0 mi SW 3.5 mph - N/A   Overcast
6:35 AM 41.0 °F 39.0 °F 37.4 °F 87% 30.18 in 7.0 mi WSW 3.5 mph - N/A   Overcast
6:55 AM 40.1 °F 38.0 °F 36.9 °F 88% 30.19 in 5.0 mi SSW 3.5 mph - N/A   Overcast
7:15 AM 40.1 °F 38.0 °F 36.9 °F 88% 30.19 in 5.0 mi SW 3.5 mph - N/A   Overcast
7:35 AM 40.6 °F 36.0 °F 36.5 °F 85% 30.19 in 7.0 mi SW 6.9 mph - N/A   Overcast
7:55 AM 41.0 °F 36.4 °F 35.8 °F 82% 30.20 in 7.0 mi SSW 6.9 mph - N/A   Overcast
8:15 AM 41.0 °F 37.1 °F 36.0 °F 82% 30.20 in 10.0 mi SSW 5.8 mph - N/A   Overcast
8:35 AM 41.0 °F 35.8 °F 35.6 °F 81% 30.20 in 10.0 mi SW 8.1 mph - N/A   Overcast
8:55 AM 41.4 °F 35.2 °F 35.6 °F 80% 30.20 in 10.0 mi SSW 10.4 mph - N/A   Overcast
9:15 AM 41.4 °F 36.2 °F 34.2 °F 76% 30.20 in 10.0 mi SW 8.1 mph - N/A   Overcast
9:35 AM 41.5 °F 35.0 °F 34.2 °F 75% 30.20 in 10.0 mi SSW 11.5 mph - N/A   Overcast
9:55 AM 41.9 °F 36.3 °F 34.3 °F 75% 30.21 in 10.0 mi SW 9.2 mph - N/A   Overcast
10:35 AM 42.3 °F 35.5 °F 34.3 °F 74% 30.20 in 10.0 mi SW 12.7 mph - N/A   Overcast
10:55 AM 42.4 °F 37.0 °F 34.5 °F 74% 30.20 in 10.0 mi SSW 9.2 mph 16.1 mph N/A   Overcast
11:15 AM 42.8 °F 36.2 °F 34.3 °F 72% 30.19 in 10.0 mi SSW 12.7 mph - N/A   Overcast
11:35 AM 43.0 °F 36.8 °F 34.5 °F 72% 30.18 in 10.0 mi SW 11.5 mph - N/A   Overcast
11:55 AM 43.0 °F 36.8 °F 34.3 °F 72% 30.17 in 10.0 mi SW 11.5 mph 17.3 mph N/A   Overcast
12:15 PM 43.7 °F 37.3 °F 35.1 °F 72% 30.16 in 10.0 mi SSW 12.7 mph 19.6 mph N/A   Overcast
12:35 PM 43.9 °F 37.9 °F 35.2 °F 72% 30.15 in 10.0 mi SSW 11.5 mph - N/A   Overcast
12:55 PM 44.8 °F 39.0 °F 36.3 °F 72% 30.14 in 10.0 mi South 11.5 mph - N/A   Overcast
1:15 PM 45.0 °F 38.9 °F 36.3 °F 72% 30.14 in 10.0 mi South 12.7 mph - N/A   Overcast
1:35 PM 45.3 °F 39.3 °F 37.0 °F 73% 30.13 in 10.0 mi South 12.7 mph - N/A   Overcast
1:55 PM 46.6 °F - 36.7 °F 68% 30.13 in 10.0 mi SSW 12.7 mph - N/A   Mostly Cloudy
2:15 PM 46.2 °F 40.5 °F 36.7 °F 69% 30.12 in 10.0 mi South 12.7 mph - N/A   Scattered Clouds
2:35 PM 47.1 °F - 37.6 °F 69% 30.11 in 10.0 mi South 11.5 mph - N/A   Scattered Clouds
2:55 PM 46.6 °F - 37.4 °F 70% 30.11 in 10.0 mi South 11.5 mph - N/A   Scattered Clouds
3:35 PM 46.4 °F 40.7 °F 37.6 °F 71% 30.10 in 10.0 mi South 12.7 mph - N/A   Clear
3:55 PM 45.7 °F 41.0 °F 38.3 °F 75% 30.10 in 10.0 mi South 9.2 mph - N/A   Clear
4:15 PM 44.8 °F 39.9 °F 38.3 °F 78% 30.09 in 10.0 mi South 9.2 mph - N/A   Clear
4:35 PM 43.2 °F 38.4 °F 37.4 °F 80% 30.09 in 10.0 mi South 8.1 mph - N/A   Clear
4:55 PM 41.7 °F 36.7 °F 37.2 °F 84% 30.09 in 7.0 mi SSE 8.1 mph - N/A   Clear
5:15 PM 41.0 °F 35.8 °F 36.7 °F 85% 30.09 in 7.0 mi SSE 8.1 mph - N/A   Clear
5:35 PM 40.1 °F 34.7 °F 36.5 °F 87% 30.09 in 7.0 mi SSE 8.1 mph - N/A   Clear
5:55 PM 40.1 °F 34.7 °F 36.5 °F 87% 30.09 in 7.0 mi SSE 8.1 mph - N/A   Clear
6:15 PM 39.7 °F 33.7 °F 36.0 °F 86% 30.09 in 7.0 mi SSE 9.2 mph - N/A   Clear
6:35 PM 39.7 °F 34.3 °F 36.1 °F 87% 30.09 in 7.0 mi SSE 8.1 mph - N/A   Clear
6:55 PM 39.6 °F 34.0 °F 36.0 °F 87% 30.09 in 7.0 mi SSE 8.1 mph - N/A   Clear
7:15 PM 39.4 °F 33.8 °F 35.8 °F 87% 30.08 in 7.0 mi SSE 8.1 mph - N/A   Clear
7:35 PM 39.7 °F 33.7 °F 36.5 °F 88% 30.08 in 7.0 mi SSE 9.2 mph - N/A   Clear
7:55 PM 39.4 °F 32.7 °F 36.0 °F 88% 30.08 in 5.0 mi SSE 10.4 mph - N/A   Clear
8:15 PM 39.2 °F 33.0 °F 35.8 °F 88% 30.07 in 5.0 mi SSE 9.2 mph - N/A   Clear
8:35 PM 38.7 °F 31.8 °F 35.4 °F 88% 30.07 in 5.0 mi SSE 10.4 mph - N/A   Clear
8:55 PM 38.3 °F 31.9 °F 35.1 °F 88% 30.07 in 5.0 mi SSE 9.2 mph - N/A   Clear
9:15 PM 38.3 °F 31.9 °F 35.1 °F 88% 30.07 in 5.0 mi SSE 9.2 mph - N/A   Clear
9:35 PM 38.3 °F 31.9 °F 35.2 °F 89% 30.07 in 5.0 mi SSE 9.2 mph - N/A   Clear
9:55 PM 38.3 °F 31.4 °F 35.1 °F 88% 30.07 in 5.0 mi SSE 10.4 mph - N/A   Clear
10:15 PM 38.5 °F 32.1 °F 35.6 °F 89% 30.07 in 5.0 mi SSE 9.2 mph - N/A   Clear
10:35 PM 38.1 °F 31.7 °F 35.1 °F 89% 30.08 in 5.0 mi South 9.2 mph - N/A   Clear
11:15 PM 36.5 °F 30.3 °F 33.8 °F 90% 30.08 in 4.0 mi SSE 8.1 mph - N/A   Clear
11:35 PM 37.2 °F 31.9 °F 34.5 °F 90% 30.09 in 4.0 mi SSE 6.9 mph - N/A   Clear
11:55 PM 35.2 °F 31.2 °F 32.5 °F 90% 30.09 in 4.0 mi South 4.6 mph - N/A   Clear